Weather History for Knox, IN

Change the Weather History Date:

Thursday, September 13, 2012

  Actual Average (KVPZ) Record (KVPZ)
Temperature  
Mean Temperature 70 °F 65 °F  
Max Temperature 93 °F 76 °F 92 °F (2005)
Min Temperature 57 °F 54 °F 41 °F (2014)
Degree Days  
Heating Degree Days 0 3  
Month to date heating degree days 22  
Since 1 July heating degree days 39  
Cooling Degree Days 4 2  
Month to date cooling degree days 43  
Year to date cooling degree days 679  
Growing Degree Days 20 (Base 50)    
Moisture  
Dew Point 58 °F    
Average Humidity 71    
Maximum Humidity 95    
Minimum Humidity 41    
Precipitation  
Precipitation 0.00 in 0.09 in 2.70 in (2008)
Month to date precipitation 1.54  
Year to date precipitation 27.08  
Sea Level Pressure  
Sea Level Pressure 30.22 in    
Wind  
Wind Speed 6 mph (WSW)    
Max Wind Speed 14 mph    
Max Gust Speed 18 mph    
Visibility 10 miles    
Events      
T = Trace of Precipitation, MM = Missing Value Source: NWS Daily Summary

Daily Weather History Graph

Daily Weather History Graph

Search for Another Location

Airport:

Trip Planner

Search our weather history database for the weather conditions in past years. The results will help you decide how hot, cold, wet, or windy it might be!

Date:

Astronomy

Sep. 13, 2012 Rise Set
Actual Time 6:25 AM CDT 6:58 PM CDT
Civil Twilight 5:57 AM CDT 7:26 PM CDT
Nautical Twilight 5:24 AM CDT 7:58 PM CDT
Astronomical Twilight 4:51 AM CDT 8:32 PM CDT
Moon 3:43 AM CDT (9/13) 5:21 PM CDT (9/13)
Length of Visible Light 13h 28m
Length of Day
12h 32m
Waning Crescent, 7% of the Moon is Illuminated
Sep 13
Waning Crescent
Sep 15
New
Sep 22
First Quarter
Sep 29
Full
Oct 8
Last Quarter

Hourly Weather History & Observations

Time (CDT) Temp. Heat Index Dew Point Humidity Pressure Visibility Wind Dir Wind Speed Gust Speed Precip Events Conditions
12:15 AM 66.7 °F - 55.8 °F 68% 30.18 in 10.0 mi South 5.8 mph - N/A   Scattered Clouds
12:35 AM 65.3 °F - 55.8 °F 71% 30.19 in 10.0 mi South 4.6 mph - N/A   Clear
12:55 AM 63.7 °F - 57.0 °F 79% 30.19 in 10.0 mi SSW 4.6 mph - N/A   Clear
1:15 AM 62.8 °F - 58.1 °F 85% 30.19 in 10.0 mi South 4.6 mph - N/A   Scattered Clouds
1:35 AM 63.0 °F - 58.5 °F 85% 30.19 in 10.0 mi South 5.8 mph - N/A   Overcast
1:55 AM 63.9 °F - 59.0 °F 84% 30.19 in 10.0 mi SSW 4.6 mph - N/A   Overcast
2:15 AM 64.2 °F - 59.2 °F 84% 30.19 in 10.0 mi SSW 4.6 mph - N/A   Overcast
2:35 AM 64.6 °F - 59.2 °F 83% 30.19 in 10.0 mi SSW 4.6 mph - N/A   Overcast
2:55 AM 65.5 °F - 59.0 °F 80% 30.19 in 10.0 mi SSW 4.6 mph - N/A   Overcast
3:15 AM 66.2 °F - 59.0 °F 78% 30.20 in 10.0 mi SSW 6.9 mph - N/A   Overcast
3:35 AM 66.7 °F - 59.0 °F 76% 30.20 in 10.0 mi SSW 4.6 mph - N/A   Overcast
3:55 AM 66.7 °F - 59.0 °F 76% 30.20 in 10.0 mi SSW 5.8 mph - N/A   Overcast
4:15 AM 67.1 °F - 59.0 °F 75% 30.20 in 10.0 mi SW 4.6 mph - N/A   Overcast
4:35 AM 67.1 °F - 59.0 °F 75% 30.21 in 10.0 mi SSW 4.6 mph - N/A   Overcast
4:55 AM 66.6 °F - 59.2 °F 77% 30.21 in 10.0 mi SSW 4.6 mph - N/A   Overcast
5:15 AM 66.4 °F - 59.0 °F 77% 30.21 in 10.0 mi South 5.8 mph - N/A   Overcast
5:35 AM 66.7 °F - 58.5 °F 75% 30.22 in 10.0 mi SSW 4.6 mph - N/A   Overcast
5:55 AM 66.7 °F - 58.1 °F 74% 30.22 in 10.0 mi SSW 4.6 mph - N/A   Overcast
6:15 AM 66.6 °F - 57.7 °F 73% 30.22 in 10.0 mi SSW 5.8 mph - N/A   Overcast
6:35 AM 66.4 °F - 57.7 °F 74% 30.23 in 10.0 mi SSW 5.8 mph - N/A   Overcast
6:55 AM 66.0 °F - 58.1 °F 76% 30.23 in 10.0 mi South 5.8 mph - N/A   Overcast
7:15 AM 65.7 °F - 58.1 °F 77% 30.23 in 10.0 mi South 3.5 mph - N/A   Overcast
7:35 AM 66.0 °F - 58.3 °F 76% 30.23 in 10.0 mi SSW 4.6 mph - N/A   Overcast
7:55 AM 66.7 °F - 58.5 °F 75% 30.23 in 10.0 mi SSW 4.6 mph - N/A   Overcast
8:15 AM 67.3 °F - 58.6 °F 74% 30.24 in 10.0 mi SSW 5.8 mph - N/A   Overcast
8:35 AM 68.2 °F - 58.6 °F 71% 30.24 in 10.0 mi SSW 5.8 mph - N/A   Overcast
8:55 AM 69.1 °F - 58.8 °F 70% 30.24 in 10.0 mi SSW 8.1 mph - N/A   Overcast
9:15 AM 70.7 °F - 58.8 °F 66% 30.24 in 10.0 mi SW 9.2 mph - N/A   Overcast
9:35 AM 71.8 °F - 59.2 °F 64% 30.24 in 10.0 mi SW 6.9 mph - N/A   Overcast
9:55 AM 72.7 °F - 59.0 °F 62% 30.24 in 10.0 mi SW 8.1 mph - N/A   Overcast
10:15 AM 74.1 °F - 59.0 °F 59% 30.25 in 10.0 mi SW 5.8 mph - N/A   Overcast
10:35 AM 74.3 °F - 59.4 °F 60% 30.25 in 10.0 mi WNW 10.4 mph - N/A   Overcast
10:55 AM 74.5 °F - 59.0 °F 58% 30.25 in 10.0 mi Calm Calm - N/A   Mostly Cloudy
11:15 AM 75.4 °F - 59.2 °F 57% 30.25 in 10.0 mi West 3.5 mph - N/A   Mostly Cloudy
11:35 AM 75.4 °F - 59.4 °F 57% 30.24 in 10.0 mi West 3.5 mph - N/A   Mostly Cloudy
11:55 AM 76.5 °F - 58.3 °F 53% 30.23 in 10.0 mi Calm Calm - N/A   Mostly Cloudy
12:15 PM 77.4 °F - 57.2 °F 50% 30.23 in 10.0 mi NW 3.5 mph - N/A   Scattered Clouds
12:35 PM 78.4 °F - 57.7 °F 49% 30.22 in 10.0 mi Calm Calm - N/A   Clear
12:55 PM 78.8 °F - 57.2 °F 47% 30.21 in 10.0 mi West 3.5 mph - N/A   Clear
1:15 PM 79.0 °F - 56.5 °F 46% 30.21 in 10.0 mi WNW 3.5 mph - N/A   Scattered Clouds
1:35 PM 78.4 °F - 56.7 °F 47% 30.20 in 10.0 mi Calm Calm - N/A   Mostly Cloudy
1:55 PM 80.2 °F 80.4 °F 55.8 °F 43% 30.19 in 10.0 mi WSW 5.8 mph - N/A   Scattered Clouds
2:15 PM 80.8 °F 80.6 °F 54.9 °F 41% 30.18 in 10.0 mi WSW 5.8 mph - N/A   Scattered Clouds
2:35 PM 80.8 °F 80.6 °F 55.2 °F 41% 30.18 in 10.0 mi Calm Calm - N/A   Scattered Clouds
2:55 PM 80.8 °F 80.6 °F 55.2 °F 41% 30.17 in 10.0 mi South 5.8 mph - N/A   Mostly Cloudy
3:15 PM 80.4 °F 80.4 °F 55.6 °F 42% 30.17 in 10.0 mi West 5.8 mph - N/A   Overcast
3:35 PM 77.2 °F - 58.8 °F 53% 30.18 in 10.0 mi NNW 11.5 mph 17.3 mph N/A   Overcast
3:55 PM 72.3 °F - 61.3 °F 68% 30.19 in 10.0 mi NNW 12.7 mph - N/A   Overcast
4:15 PM 70.3 °F - 60.4 °F 71% 30.19 in 10.0 mi North 12.7 mph - N/A   Overcast
4:55 PM 67.8 °F - 59.2 °F 74% 30.20 in 10.0 mi North 11.5 mph - N/A   Overcast
5:15 PM 66.9 °F - 58.6 °F 75% 30.21 in 10.0 mi North 11.5 mph 18.4 mph N/A   Overcast
5:35 PM 66.2 °F - 57.9 °F 75% 30.21 in 10.0 mi North 13.8 mph 17.3 mph N/A   Overcast
5:55 PM 65.7 °F - 57.2 °F 74% 30.21 in 10.0 mi North 12.7 mph - N/A   Overcast
6:15 PM 65.3 °F - 56.8 °F 74% 30.22 in 10.0 mi North 12.7 mph - N/A   Overcast
6:35 PM 64.9 °F - 57.0 °F 75% 30.22 in 10.0 mi North 13.8 mph - N/A   Overcast
6:55 PM 64.6 °F - 57.0 °F 76% 30.22 in 10.0 mi North 12.7 mph - N/A   Overcast
7:15 PM 64.2 °F - 57.4 °F 78% 30.23 in 10.0 mi North 10.4 mph - N/A   Overcast
7:35 PM 63.9 °F - 58.5 °F 83% 30.23 in 10.0 mi North 13.8 mph 17.3 mph N/A   Overcast
7:55 PM 63.7 °F - 59.0 °F 85% 30.24 in 10.0 mi North 11.5 mph 16.1 mph N/A   Overcast
8:15 PM 63.5 °F - 59.0 °F 85% 30.24 in 10.0 mi North 10.4 mph - N/A   Overcast
8:35 PM 63.5 °F - 59.0 °F 85% 30.24 in 10.0 mi NNE 9.2 mph - N/A   Overcast
8:55 PM 63.5 °F - 58.8 °F 85% 30.25 in 10.0 mi North 10.4 mph - N/A   Overcast
9:15 PM 63.1 °F - 58.3 °F 84% 30.25 in 10.0 mi NNE 11.5 mph - N/A   Overcast
9:35 PM 62.8 °F - 57.4 °F 82% 30.26 in 10.0 mi North 8.1 mph - N/A   Overcast
9:55 PM 62.6 °F - 57.0 °F 82% 30.26 in 10.0 mi North 8.1 mph - N/A   Overcast
10:15 PM 62.4 °F - 56.7 °F 81% 30.27 in 10.0 mi North 8.1 mph - N/A   Overcast
10:35 PM 61.2 °F - 57.2 °F 87% 30.27 in 7.0 mi North 6.9 mph - N/A   Overcast
10:55 PM 59.9 °F - 58.1 °F 94% 30.28 in 7.0 mi NNE 3.5 mph - N/A   Overcast
11:15 PM 59.4 °F - 57.9 °F 95% 30.27 in 10.0 mi NE 6.9 mph - N/A   Overcast
11:35 PM 59.0 °F - 57.6 °F 95% 30.28 in 7.0 mi NNE 8.1 mph - N/A   Overcast
11:55 PM 57.7 °F - 56.3 °F 95% 30.28 in 10.0 mi NNE 10.4 mph - N/A   Overcast